TimeEDT,TemperatureF,Dew PointF,Humidity,Sea Level PressureIn,VisibilityMPH,Wind Direction,Wind SpeedMPH,Gust SpeedMPH,PrecipitationIn,Events,Conditions,WindDirDegrees,DateUTC
12:55 AM,15.8,15.8,100,-9999,0.0,WNW,61.0,65.6,N/A,Fog-Snow,Light Snow Showers,300,2013-10-25 04:55:00
1:48 AM,15.8,15.8,100,-9999,0.1,West,50.6,59.8,N/A,Fog,Light Freezing Fog,280,2013-10-25 05:48:00
2:56 AM,15.8,15.8,100,-9999,0.0,WNW,52.9,73.6,N/A,Fog-Snow,Light Snow Showers,300,2013-10-25 06:56:00
3:54 AM,15.8,15.8,100,-9999,0.0,WNW,54.1,62.1,N/A,Fog-Snow,Light Snow Showers,300,2013-10-25 07:54:00
4:56 AM,15.8,15.8,100,-9999,0.0,WNW,57.5,-,N/A,Fog-Snow,Light Snow Showers,300,2013-10-25 08:56:00
5:51 AM,15.8,15.8,100,-9999,0.0,WNW,55.2,-,N/A,Fog,Light Freezing Fog,300,2013-10-25 09:51:00
6:47 AM,15.8,15.8,100,-9999,0.0,WNW,52.9,-,N/A,Fog,Light Freezing Fog,300,2013-10-25 10:47:00
7:52 AM,15.8,15.8,100,-9999,0.0,WNW,47.2,-,N/A,Fog,Light Freezing Fog,300,2013-10-25 11:52:00
8:53 AM,15.8,15.8,100,-9999,0.0,WNW,46.0,-,N/A,Fog,Light Freezing Fog,300,2013-10-25 12:53:00
9:49 AM,15.8,15.8,100,-9999,0.0,WNW,47.2,55.2,N/A,Fog,Light Freezing Fog,300,2013-10-25 13:49:00
10:47 AM,15.8,15.8,100,-9999,0.0,WNW,40.3,-,N/A,Fog,Light Freezing Fog,290,2013-10-25 14:47:00
11:57 AM,15.8,15.8,100,-9999,0.1,WNW,36.8,-,N/A,Fog,Light Freezing Fog,300,2013-10-25 15:57:00
12:53 PM,15.8,15.8,100,-9999,0.0,WNW,40.3,-,N/A,Fog,Light Freezing Fog,300,2013-10-25 16:53:00
1:54 PM,15.8,15.8,100,-9999,0.0,WNW,39.1,44.9,N/A,Fog,Light Freezing Fog,300,2013-10-25 17:54:00
2:52 PM,14.0,14.0,100,-9999,0.0,SW,35.7,-,N/A,Fog,Light Freezing Fog,230,2013-10-25 18:52:00
3:48 PM,14.0,14.0,100,-9999,0.0,SW,44.9,52.9,N/A,Fog,Light Freezing Fog,230,2013-10-25 19:48:00
4:55 PM,12.2,12.2,100,-9999,0.0,WNW,48.3,-,N/A,Fog,Light Freezing Fog,300,2013-10-25 20:55:00
5:56 PM,14.0,14.0,100,-9999,0.0,WNW,54.1,-,N/A,Fog,Light Freezing Fog,300,2013-10-25 21:56:00
6:51 PM,14.0,14.0,100,-9999,0.1,WNW,55.2,63.3,N/A,Fog,Light Freezing Fog,300,2013-10-25 22:51:00
7:53 PM,14.0,14.0,100,-9999,0.1,WNW,52.9,64.4,N/A,Fog,Light Freezing Fog,300,2013-10-25 23:53:00
8:51 PM,14.0,14.0,100,-9999,0.1,WNW,52.9,58.7,N/A,Fog-Snow,Light Snow Showers,300,2013-10-26 00:51:00
9:48 PM,14.0,14.0,100,-9999,0.1,WNW,55.2,65.6,N/A,Fog-Snow,Light Snow,290,2013-10-26 01:48:00
10:59 PM,14.0,14.0,100,-9999,0.1,WNW,54.1,58.7,N/A,Fog-Snow,Light Snow,300,2013-10-26 02:59:00
11:58 PM,12.2,12.2,100,-9999,0.1,WNW,61.0,66.7,N/A,Fog-Snow,Light Snow,290,2013-10-26 03:58:00